HULIANWANG DIGUI-114

导读 | 豆包AI

HULIANWANG DIGUI-114是中国于2025年12月8日发射的低轨卫星,隶属于我国低轨卫星互联网星座建设序列。该卫星旨在完善天地一体化网络覆盖,提升全球宽带通信服务能力,可服务于偏远地区网络接入、物联网连接以及移动互联场景,推动我国卫星互联网基础设施建设进一步完善,助力数字经济全域发展。

基本信息
目录编号:
66953
目录名称:
HULIANWANG DIGUI-114
国际标识:
2025-287A
轨道中心:
EARTH
卫星名称:
HULIANWANG DIGUI-114
卫星全名:
HULIANWANG DIGUI-114
卫星状态:
在轨 (已飞行117 天)
发射日期:
2025-12-08 UTC
国别 :
中国 (CN)
星等 :
--
轨道信息
数据来源 国际轨道数据 AOE轨道数据
星历时间 2026-04-04T03:15:36+0800
6小时前
查看轨道信息
2026-04-02T11:00:00+0800
1天前
查看轨道信息
半长轴 7546.028km 7546.026km
偏心率 0.0001764 0.0001928
轨道倾角 86.492° 86.489°
近地点辐角 74.666° 125.667°
升交点赤经 307.525° 308.100°
平近点角 285.467° 160.883°
近地点 1166.559km 1166.434km
远地点 1169.223km 1169.344km
周期 108.727分钟 108.727分钟
每日圈数 13.244183 13.244188
详细信息
使用方式:
暂无
2D轨道图
3D轨道图
轨道高度分析图
轨道倾角分析图
轨道综合分析图
查看轨道综合分析图